{"data":{"norad_id":65647,"intl_designator":"2025-210AB","name":"STARLINK-35202","alt_names":[],"object_type":"PAYLOAD","status":"ACTIVE","operator":null,"country":"US","launch_date":"2025-09-18","launch_site_code":"AFETR","launch_vehicle":null,"mission":null,"orbit_class":"UNKNOWN","rcs_meters":null,"size_class":null,"mass_kg":null,"dimensions":null,"purposes":["comms"],"wikipedia_slug":null,"has_3d_model":false,"image_url":null,"decayed_at":null,"tle_current":{"epoch":"2026-05-25T04:01:50.431584Z","epoch_age_seconds":64062,"freshness":"FRESH","line1":"1 65647U 25210AB  26145.16794481  .00023516  00000+0  54762-3 0  9999","line2":"2 65647  53.1592 309.4700 0000792  90.4667 269.6429 15.42190855 39479","mean_motion":15.42190855,"eccentricity":7.92e-5,"inclination_deg":53.1592,"raan_deg":309.47,"arg_perigee_deg":90.4667,"mean_anomaly_deg":269.6429,"bstar":0.00054762,"rev_number":3947,"period_min":93.37365704973,"perigee_km":439.10474715413,"apogee_km":440.18468377786,"semimajor_km":6817.781715466,"source":"CELESTRAK","updated_at":"2026-05-25T13:38:20.886636Z"}}}